Simultaneous Nadir Overpasses (SNOs) Predictions

Prediction of SNOs between GOES-15 and LANDSAT-8 Satellite Orbit:

Table of predicted SNOs for the next 14.0 days since TLE Epoch: 11/19/2022
Index Date Time (GOES-15) GOES-15 Lat,Lon LANDSAT-8 Lat,Lon Distance(km) Time Diff (sec)
1 11/19/2022 06:34:15 0.20,-128.24 0.71,-125.78 278.93 80
2 11/19/2022 18:55:31 -0.19,-128.21 0.38,-130.94 310.32 80
3 11/21/2022 18:46:00 -0.19,-128.17 -0.22,-127.98 21.29 80
4 11/23/2022 18:33:49 -0.19,-128.13 -0.82,-125.02 352.01 80
5 11/24/2022 06:55:13 0.18,-128.14 -0.25,-130.22 237.16 80
6 11/26/2022 06:40:23 0.18,-128.08 0.36,-127.27 92.29 80
7 11/26/2022 19:01:37 -0.17,-128.03 0.78,-132.42 498.84 80
8 11/28/2022 06:28:12 0.17,-128.01 0.97,-124.31 421.26 80
9 11/28/2022 18:49:26 -0.16,-127.97 0.16,-129.46 169.79 80
10 11/30/2022 18:39:55 -0.16,-127.90 -0.46,-126.50 159.22 80
11 12/01/2022 07:01:19 0.15,-127.92 -0.66,-131.69 429.00 80
12 12/02/2022 18:27:45 -0.15,-127.84 -1.08,-123.55 488.23 80
